TimeAKDT,TemperatureF,Dew PointF,Humidity,Sea Level PressureIn,VisibilityMPH,Wind Direction,Wind SpeedMPH,Gust SpeedMPH,PrecipitationIn,Events,Conditions,WindDirDegrees,DateUTC
12:15 AM,50.0,50.0,100,29.35,2.5,NNW,4.6,-,0.07,Rain,Rain,330,2012-09-23 08:15:00
12:23 AM,50.0,50.0,100,29.35,5.0,Calm,Calm,-,0.08,Rain,Light Rain,0,2012-09-23 08:23:00
12:43 AM,50.0,48.2,94,29.36,2.5,South,9.2,17.3,0.16,Rain,Heavy Rain,190,2012-09-23 08:43:00
12:53 AM,50.0,48.9,96,29.37,2.0,SSW,10.4,-,0.23,Rain,Heavy Rain,210,2012-09-23 08:53:00
12:58 AM,51.8,48.2,88,29.36,3.0,SSW,4.6,-,0.01,Rain,Rain,200,2012-09-23 08:58:00
1:53 AM,50.0,48.9,96,29.36,7.0,Variable,6.9,-,0.10,Rain,Light Rain,0,2012-09-23 09:53:00
1:57 AM,50.0,48.2,94,29.35,5.0,Variable,6.9,-,0.01,Rain,Rain,0,2012-09-23 09:57:00
2:16 AM,51.8,48.2,88,29.35,4.0,Variable,4.6,-,0.06,Rain,Rain,0,2012-09-23 10:16:00
2:27 AM,51.8,48.2,88,29.35,7.0,ENE,5.8,-,0.07,Rain,Light Rain,60,2012-09-23 10:27:00
2:42 AM,51.8,48.2,88,29.36,5.0,Variable,6.9,-,0.08,Rain,Light Rain,0,2012-09-23 10:42:00
2:53 AM,53.1,48.0,83,29.36,10.0,South,8.1,-,0.08,Rain,Light Rain,180,2012-09-23 10:53:00
3:53 AM,50.0,48.0,93,29.35,10.0,SE,3.5,-,0.02,Rain,Light Rain,140,2012-09-23 11:53:00
4:53 AM,51.1,48.0,89,29.36,10.0,Variable,3.5,-,0.09,,Overcast,0,2012-09-23 12:53:00
5:53 AM,50.0,48.0,93,29.39,4.0,Calm,Calm,-,0.10,Rain,Rain,0,2012-09-23 13:53:00
6:34 AM,50.0,48.2,94,29.38,6.0,Calm,Calm,-,0.07,Rain,Rain,0,2012-09-23 14:34:00
6:53 AM,48.9,48.0,97,29.39,5.0,Calm,Calm,-,0.11,Rain,Light Rain,0,2012-09-23 14:53:00
7:53 AM,48.0,48.0,100,29.42,5.0,Calm,Calm,-,0.09,Rain,Light Rain,0,2012-09-23 15:53:00
8:53 AM,50.0,48.0,93,29.44,3.0,Variable,4.6,-,0.10,Rain,Light Rain,0,2012-09-23 16:53:00
9:05 AM,50.0,48.2,94,29.45,6.0,SSE,4.6,-,0.00,Rain,Light Rain,150,2012-09-23 17:05:00
9:16 AM,50.0,48.2,94,29.45,10.0,Variable,5.8,-,0.00,Rain,Light Rain,0,2012-09-23 17:16:00
9:37 AM,50.0,48.2,94,29.46,4.0,SSW,11.5,20.7,0.02,Rain,Light Rain,200,2012-09-23 17:37:00
9:53 AM,50.0,48.0,93,29.46,5.0,SSW,11.5,-,0.03,Rain,Light Rain,200,2012-09-23 17:53:00
10:17 AM,51.8,48.2,88,29.47,10.0,SSE,8.1,19.6,0.01,Rain,Light Rain,150,2012-09-23 18:17:00
10:29 AM,50.0,48.2,94,29.48,6.0,SSE,8.1,-,0.01,Rain,Light Rain,150,2012-09-23 18:29:00
10:53 AM,51.1,48.9,92,29.50,4.0,South,10.4,-,0.02,Rain,Light Rain,190,2012-09-23 18:53:00
11:06 AM,50.0,48.2,94,29.50,4.0,SE,5.8,-,0.02,Rain,Light Rain,140,2012-09-23 19:06:00
11:53 AM,50.0,46.9,89,29.52,6.0,SSE,5.8,-,0.05,Rain,Light Rain,150,2012-09-23 19:53:00
12:18 PM,51.8,48.2,88,29.53,4.0,South,4.6,-,0.03,Rain,Light Rain,180,2012-09-23 20:18:00
12:53 PM,48.9,46.9,93,29.55,4.0,ESE,6.9,-,0.04,Rain,Light Rain,120,2012-09-23 20:53:00
1:03 PM,50.0,48.2,94,29.55,10.0,SE,8.1,-,0.00,,Overcast,130,2012-09-23 21:03:00
1:30 PM,50.0,48.2,94,29.56,2.5,South,5.8,-,0.03,Rain,Light Rain,170,2012-09-23 21:30:00
1:37 PM,50.0,48.2,94,29.57,4.0,SSE,6.9,-,0.03,Rain,Light Rain,160,2012-09-23 21:37:00
1:53 PM,51.1,46.9,86,29.57,10.0,SSW,13.8,18.4,0.03,Rain,Light Rain,200,2012-09-23 21:53:00
2:53 PM,50.0,46.9,89,29.60,8.0,ENE,5.8,-,0.01,Rain,Rain,60,2012-09-23 22:53:00
3:53 PM,51.1,48.9,92,29.62,10.0,Calm,Calm,-,0.01,Rain,Light Rain,0,2012-09-23 23:53:00
4:53 PM,51.1,48.0,89,29.63,10.0,Calm,Calm,-,0.00,,Overcast,0,2012-09-24 00:53:00
5:53 PM,52.0,48.0,86,29.65,10.0,Calm,Calm,-,N/A,,Overcast,0,2012-09-24 01:53:00
6:53 PM,50.0,48.0,93,29.66,10.0,Calm,Calm,-,N/A,,Overcast,0,2012-09-24 02:53:00
7:53 PM,48.0,46.9,96,29.68,10.0,Calm,Calm,-,N/A,,Overcast,0,2012-09-24 03:53:00
8:53 PM,48.0,46.9,96,29.71,10.0,Calm,Calm,-,N/A,,Overcast,0,2012-09-24 04:53:00
9:53 PM,46.9,46.0,97,29.74,10.0,Calm,Calm,-,N/A,,Overcast,0,2012-09-24 05:53:00
10:38 PM,46.4,44.6,93,29.75,1.8,Calm,Calm,-,N/A,,Overcast,0,2012-09-24 06:38:00
10:51 PM,46.4,46.4,100,29.75,3.0,Calm,Calm,-,N/A,,Overcast,0,2012-09-24 06:51:00
10:52 PM,46.9,46.0,97,29.75,4.0,Calm,Calm,-,N/A,,Overcast,0,2012-09-24 06:52:00
11:15 PM,44.6,44.6,100,29.76,1.8,Calm,Calm,-,N/A,,Overcast,0,2012-09-24 07:15:00
11:21 PM,44.6,44.6,100,29.76,0.8,Calm,Calm,-,N/A,,Overcast,0,2012-09-24 07:21:00
11:45 PM,46.4,46.4,100,29.77,1.2,Calm,Calm,-,N/A,,Overcast,0,2012-09-24 07:45:00
11:50 PM,46.4,46.4,100,29.77,3.0,Calm,Calm,-,N/A,,Overcast,0,2012-09-24 07:50:00
11:53 PM,46.0,46.0,100,29.77,8.0,Calm,Calm,-,N/A,,Overcast,0,2012-09-24 07:53:00
11:59 PM,44.6,44.6,100,29.77,2.5,Calm,Calm,-,N/A,,Overcast,0,2012-09-24 07:59:00